Погода в Соловьевске

Россия / Амурская область     54°13′20″N   124°25′59″E
темп.,
°C
ветер,
м/с
пор.,
м/с
влажн.,
%
обл.,
%
осадки,
мм/ч
давл.,
гПа
погр.,
м
30 июня, чт
чт3000:00+17св117413 0.0 100811
03:00+19с116873 0.0 100811
06:00+19всв11733 0.0 100933
09:00+25юв22505 0.0 1009511
12:00+29ююв22365 0.0 10092007
15:00+30ююв23315 0.0 10072505
18:00+29ююв33345 0.0 10071981
21:00+21ююв11652 0.0 100811
1 июля, пт
пт100:00+18всв11735 0.0 100911
03:00+16всв11814 0.0 101011
06:00+17в12773 0.0 101076
09:00+24юв35564 0.0 1009581
12:00+28ююв33380 0.0 10081626
15:00+31ююв32310 0.0 10062122
18:00+30юв23330 0.0 10051833
21:00+21вюв11660 0.0 100511
2 июля, сб
сб200:00+18всв11780 0.0 100614
03:00+16всв11870 0.0 100623
06:00+18в24810 0.0 1006159
09:00+24юв35600 0.0 1005674
12:00+28юв33440 0.0 10041599
15:00+31юв223329 0.0 10022728
18:00+29ююв344165 0.0 10011389
21:00+21вюв21768 0.0 100212
3 июля, вс
вс300:00+18ссв11866 0.0 100411
03:00+17ссв119247 0.0 100411
06:00+19в12830 0.0 100484
09:00+24юв34660 0.0 1003623
12:00+28юв334851 0.1 10021543
15:00+31ююв22346 0.1 10002690
18:00+29ююв444125 0.0 999969
21:00+22вюв11719 0.0 100111
4 июля, пн
пн400:00+21всв1178100 0.0 100226
03:00+19всв11850 0.0 100111
06:00+20всв12792 0.0 100174
09:00+25юв35601 0.0 1001647
12:00+30юв444037 0.0 10001617
15:00+31юв333453 0.0 9982326
18:00+30ююв333769 0.0 9971571
21:00+19сз1175100 0.0 100018